Lordsburg, NM

4:51 AM MDT on October 22, 2017 (GMT -0600)
Lordsburg

Weather History for KLSB - November, 2014

Change the Weather History Date:

Sunday, November 23, 2014

  Actual Average Record
Temperature  
Mean Temperature 46 °F -  
Max Temperature 60 °F 63 °F 62 °F (2015)
Min Temperature 32 °F 27 °F 32 °F (2013)
Degree Days  
Heating Degree Days 19    
Moisture  
Dew Point 13 °F    
Average Humidity 31    
Maximum Humidity 60    
Minimum Humidity 8    
Precipitation  
Precipitation 0.00 in - - ()
Sea Level Pressure  
Sea Level Pressure 30.01 in    
Wind  
Wind Speed 13 mph (WNW)    
Max Wind Speed 32 mph    
Max Gust Speed 41 mph    
Visibility 10 miles    
Events      
Averages and records for this station are not official NWS values.
T = Trace of Precipitation, MM = Missing Value Source: NWS Daily Summary

Daily Weather History Graph

Daily Weather History Graph

Search for Another Location

Airport or City:

Trip Planner

Search our weather history database for the weather conditions in past years. The results will help you decide how hot, cold, wet, or windy it might be!

Date:

Astronomy

Nov. 23, 2014 Rise Set
Actual Time 6:55 AM MST 5:06 PM MST
Civil Twilight 6:28 AM MST 5:33 PM MST
Nautical Twilight 5:57 AM MST 6:04 PM MST
Astronomical Twilight 5:27 AM MST 6:34 PM MST
Moon 7:55 AM MST (11/23) 6:32 PM MST (11/23)
Length of Visible Light 11h 05m
Length of Day
10h 11m
New Moon, 2% of the Moon is Illuminated
Nov 23
New Moon
Nov 29
First Quarter
Dec 6
Full
Dec 14
Last Quarter
Dec 21
New

Hourly Weather History & Observations

Time (MST) Temp. Windchill Dew Point Humidity Pressure Visibility Wind Dir Wind Speed Gust Speed Precip Events Conditions
12:15 AM 42.8 °F 37.5 °F 19.4 °F 39% 29.98 in 10.0 mi West 9.2 mph - N/A   Clear
12:35 AM 42.8 °F 37.5 °F 19.4 °F 39% 29.98 in 10.0 mi West 9.2 mph - N/A   Clear
12:55 AM 42.8 °F 37.5 °F 19.4 °F 39% 29.97 in 10.0 mi West 9.2 mph - N/A   Clear
1:15 AM 42.8 °F 38.0 °F 19.4 °F 39% 29.97 in 10.0 mi West 8.1 mph - N/A   Clear
1:35 AM 39.2 °F 34.2 °F 19.4 °F 45% 29.97 in 10.0 mi West 6.9 mph - N/A   Clear
1:55 AM 39.2 °F 35.0 °F 19.4 °F 45% 29.97 in 10.0 mi WNW 5.8 mph - N/A   Clear
2:15 AM 37.4 °F 32.8 °F 19.4 °F 48% 29.97 in 10.0 mi NNW 5.8 mph - N/A   Clear
2:35 AM 35.6 °F 30.7 °F 19.4 °F 52% 29.97 in 10.0 mi NNW 5.8 mph - N/A   Clear
2:55 AM 35.6 °F 30.7 °F 19.4 °F 52% 29.97 in 10.0 mi NW 5.8 mph - N/A   Clear
3:15 AM 33.8 °F 29.6 °F 19.4 °F 56% 29.97 in 10.0 mi West 4.6 mph - N/A   Clear
3:55 AM 37.4 °F 31.4 °F 19.4 °F 48% 29.95 in 10.0 mi West 8.1 mph - N/A   Clear
4:15 AM 35.6 °F 28.6 °F 19.4 °F 52% 29.95 in 10.0 mi NW 9.2 mph - N/A   Clear
4:35 AM 37.4 °F 30.3 °F 21.2 °F 52% 29.95 in 10.0 mi NW 10.4 mph - N/A   Clear
4:55 AM 37.4 °F 31.4 °F 21.2 °F 52% 29.95 in 10.0 mi NW 8.1 mph - N/A   Clear
5:15 AM 35.6 °F 29.9 °F 19.4 °F 52% 29.97 in 10.0 mi NW 6.9 mph - N/A   Clear
5:35 AM 35.6 °F 28.6 °F 21.2 °F 56% 29.97 in 10.0 mi NW 9.2 mph - N/A   Clear
5:55 AM 35.6 °F 29.9 °F 21.2 °F 56% 29.97 in 10.0 mi WNW 6.9 mph - N/A   Clear
6:15 AM 33.8 °F 25.8 °F 21.2 °F 60% 29.97 in 10.0 mi WNW 10.4 mph - N/A   Clear
6:35 AM 35.6 °F 28.6 °F 21.2 °F 56% 29.98 in 10.0 mi WNW 9.2 mph - N/A   Clear
6:55 AM 37.4 °F 31.4 °F 23.0 °F 56% 29.99 in 10.0 mi WNW 8.1 mph - N/A   Clear
7:15 AM 37.4 °F 31.4 °F 23.0 °F 56% 29.99 in 10.0 mi WNW 8.1 mph - N/A   Clear
7:35 AM 39.2 °F 34.2 °F 23.0 °F 52% 30.00 in 10.0 mi WNW 6.9 mph - N/A   Clear
7:55 AM 42.8 °F 38.0 °F 23.0 °F 46% 30.01 in 10.0 mi WNW 8.1 mph - N/A   Scattered Clouds
8:15 AM 44.6 °F 39.7 °F 24.8 °F 46% 30.02 in 10.0 mi WNW 9.2 mph - N/A   Clear
8:35 AM 48.2 °F - 26.6 °F 43% 30.02 in 10.0 mi NW 8.1 mph - N/A   Clear
8:55 AM 51.8 °F - 26.6 °F 38% 30.02 in 10.0 mi WNW 16.1 mph 20.7 mph N/A   Clear
9:15 AM 51.8 °F - 26.6 °F 38% 30.03 in 10.0 mi WNW 15.0 mph - N/A   Scattered Clouds
9:35 AM 53.6 °F - 26.6 °F 35% 30.03 in 10.0 mi WNW 15.0 mph 26.5 mph N/A   Mostly Cloudy
9:55 AM 53.6 °F - 26.6 °F 35% 30.02 in 10.0 mi WNW 21.9 mph 27.6 mph N/A   Overcast
10:15 AM 51.8 °F - 26.6 °F 38% 30.02 in 10.0 mi WNW 21.9 mph 28.8 mph N/A   Scattered Clouds
10:35 AM 53.6 °F - 26.6 °F 35% 30.01 in 10.0 mi West 18.4 mph 28.8 mph N/A   Clear
10:55 AM 55.4 °F - 26.6 °F 33% 30.00 in 10.0 mi West 20.7 mph 31.1 mph N/A   Clear
11:15 AM 57.2 °F - 26.6 °F 31% 29.99 in 10.0 mi West 25.3 mph 31.1 mph N/A   Clear
11:35 AM 59.0 °F - 28.4 °F 31% 29.99 in 10.0 mi WNW 25.3 mph 36.8 mph N/A   Clear
11:55 AM 59.0 °F - 28.4 °F 31% 29.98 in 10.0 mi WNW 25.3 mph 35.7 mph N/A   Clear
12:15 PM 59.0 °F - 26.6 °F 29% 29.97 in 10.0 mi West 21.9 mph 40.3 mph N/A   Clear
12:35 PM 59.0 °F - 26.6 °F 29% 29.97 in 10.0 mi WNW 28.8 mph 38.0 mph N/A   Clear
12:55 PM 59.0 °F - 26.6 °F 29% 29.96 in 10.0 mi West 27.6 mph 38.0 mph N/A   Clear
1:15 PM 59.0 °F - 26.6 °F 29% 29.95 in 10.0 mi WNW 25.3 mph 34.5 mph N/A   Clear
1:35 PM 60.8 °F - 26.6 °F 27% 29.94 in 10.0 mi West 26.5 mph 35.7 mph N/A   Clear
1:55 PM 59.0 °F - 24.8 °F 27% 29.94 in 10.0 mi NW 28.8 mph 41.4 mph N/A   Clear
2:15 PM 59.0 °F - 23.0 °F 25% 29.94 in 10.0 mi WNW 28.8 mph 40.3 mph N/A   Clear
2:35 PM 59.0 °F - 21.2 °F 23% 29.93 in 10.0 mi WNW 28.8 mph 38.0 mph N/A   Clear
2:55 PM 57.2 °F - 21.2 °F 25% 29.94 in 10.0 mi NW 29.9 mph 39.1 mph N/A   Clear
3:15 PM 59.0 °F - 23.0 °F 25% 29.95 in 10.0 mi WNW 32.2 mph 39.1 mph N/A   Clear
3:35 PM 59.0 °F - 19.4 °F 22% 29.95 in 10.0 mi WNW 29.9 mph 40.3 mph N/A   Clear
3:55 PM 57.2 °F - 15.8 °F 20% 29.96 in 10.0 mi WNW 26.5 mph 38.0 mph N/A   Clear
4:15 PM 55.4 °F - 3.2 °F 12% 29.97 in 10.0 mi WNW 28.8 mph 38.0 mph N/A   Clear
4:35 PM 55.4 °F - -0.4 °F 10% 29.97 in 10.0 mi WNW 28.8 mph 35.7 mph N/A   Clear
4:55 PM 53.6 °F - -4.0 °F 9% 29.98 in 10.0 mi NW 26.5 mph 36.8 mph N/A   Clear
5:15 PM 51.8 °F - -7.6 °F 8% 29.99 in 10.0 mi WNW 26.5 mph 34.5 mph N/A   Clear
5:35 PM 51.8 °F - -7.6 °F 8% 30.00 in 10.0 mi WNW 19.6 mph 34.5 mph N/A   Clear
5:55 PM 50.0 °F - -7.6 °F 9% 30.00 in 10.0 mi NW 25.3 mph 31.1 mph N/A   Clear
6:15 PM 50.0 °F - -7.6 °F 9% 30.02 in 10.0 mi NW 23.0 mph 29.9 mph N/A   Clear
6:35 PM 48.2 °F - -5.8 °F 10% 30.03 in 10.0 mi WNW 16.1 mph - N/A   Clear
6:55 PM 46.4 °F 40.1 °F -5.8 °F 11% 30.04 in 10.0 mi WNW 15.0 mph - N/A   Clear
7:15 PM 46.4 °F 39.5 °F -5.8 °F 11% 30.04 in 10.0 mi WNW 17.3 mph - N/A   Clear
7:35 PM 44.6 °F 37.2 °F -7.6 °F 11% 30.06 in 10.0 mi WNW 17.3 mph - N/A   Clear
7:55 PM 44.6 °F 37.2 °F -7.6 °F 11% 30.06 in 10.0 mi WNW 17.3 mph - N/A   Clear
8:15 PM 44.6 °F 37.8 °F -7.6 °F 11% 30.08 in 10.0 mi WNW 15.0 mph - N/A   Clear
8:35 PM 44.6 °F 38.4 °F -7.6 °F 11% 30.09 in 10.0 mi WNW 12.7 mph - N/A   Clear
8:55 PM 42.8 °F 36.6 °F -5.8 °F 13% 30.10 in 10.0 mi WNW 11.5 mph - N/A   Clear
9:15 PM 42.8 °F 35.1 °F -5.8 °F 13% 30.10 in 10.0 mi WNW 16.1 mph - N/A   Clear
9:35 PM 41.0 °F 33.1 °F -5.8 °F 14% 30.11 in 7.0 mi WNW 15.0 mph - N/A   Clear
9:55 PM 39.2 °F 33.6 °F -5.8 °F 15% 30.13 in 10.0 mi NW 8.1 mph - N/A   Clear
10:15 PM 37.4 °F 32.8 °F -5.8 °F 16% 30.14 in 10.0 mi WNW 5.8 mph - N/A   Clear
10:35 PM 33.8 °F - -5.8 °F 18% 30.14 in 10.0 mi Calm Calm - N/A   Clear
10:55 PM 33.8 °F 29.6 °F -4.0 °F 20% 30.14 in 10.0 mi NW 4.6 mph - N/A   Clear
11:15 PM 32.0 °F 27.5 °F -4.0 °F 21% 30.15 in 10.0 mi West 4.6 mph - N/A   Clear
11:35 PM 32.0 °F 26.4 °F -4.0 °F 21% 30.16 in 10.0 mi WNW 5.8 mph - N/A   Clear
11:55 PM 32.0 °F 25.6 °F -4.0 °F 21% 30.17 in 10.0 mi WNW 6.9 mph - N/A   Clear